Location: Brompton
(51.4000°N, 0.5333°E)
Time: 18:57:06
(UTC+00:00)

Envisat - Visible Passes

Search period start: 22 January 2022 00:00
Search period end: 01 February 2022 00:00
Orbit: 764 x 766 km, 98.2° (Epoch: 22 January)

Date Brightness Start Highest point End Pass type
(mag) Time Alt. Az. Time Alt. Az. Time Alt. Az.
22 Jan 5.7 03:30:24 10° NE 03:33:12 15° E 03:36:00 10° ESE visible
22 Jan 2.9 05:07:51 10° NNE 05:12:59 88° ESE 05:18:04 10° SSW visible
22 Jan 4.3 06:47:59 10° NNW 06:51:21 18° NW 06:54:43 10° W visible
23 Jan 4.0 04:31:06 10° NNE 04:36:00 45° E 04:40:52 10° S visible
23 Jan 3.7 06:10:25 10° N 06:14:53 32° WNW 06:19:20 10° WSW visible
23 Jan 6.0 17:33:06 10° WSW 17:35:39 14° W 17:38:14 10° NW visible
24 Jan 5.1 03:54:46 10° NE 03:58:50 23° E 04:02:51 10° SE visible
24 Jan 3.0 05:33:12 10° N 05:38:13 59° WNW 05:43:12 10° SSW visible
25 Jan 5.9 03:19:37 10° ENE 03:21:26 12° E 03:23:14 10° ESE visible
25 Jan 3.1 04:56:16 10° NNE 05:01:23 73° ESE 05:06:27 10° S visible
25 Jan 4.2 06:36:08 10° N 06:39:55 21° WNW 06:43:40 10° WSW visible
26 Jan 4.4 04:19:37 10° NNE 04:24:21 37° E 04:29:02 10° SSE visible
26 Jan 3.4 05:58:42 10° N 06:03:22 38° WNW 06:08:02 10° SW visible
26 Jan 5.9 17:20:37 10° SW 17:23:54 17° W 17:27:12 10° NW visible
27 Jan 5.4 03:43:29 10° NE 03:47:06 19° E 03:50:41 10° SE visible
27 Jan 2.9 05:21:34 10° N 05:26:39 72° WNW 05:31:42 10° SSW visible
27 Jan 4.6 07:02:08 10° NNW 07:04:50 15° NW 07:07:32 10° W visible
28 Jan 3.5 04:44:42 10° NNE 04:49:45 59° E 04:54:46 10° S visible
28 Jan 4.0 06:24:19 10° N 06:28:26 25° WNW 06:32:32 10° WSW visible
28 Jan 6.5 17:49:01 10° W 17:49:35 10° W 17:50:10 10° WNW visible
29 Jan 4.7 04:08:10 10° NNE 04:12:39 30° E 04:17:06 10° SSE visible
29 Jan 3.2 05:47:00 10° N 05:51:51 46° WNW 05:56:40 10° SW visible
30 Jan 5.7 03:32:19 10° NE 03:35:21 16° E 03:38:21 10° ESE visible
30 Jan 2.9 05:09:57 10° NNE 05:15:04 87° WNW 05:20:10 10° SSW visible
30 Jan 4.4 06:50:10 10° NNW 06:53:24 17° NW 06:56:38 10° W visible
31 Jan 3.9 04:33:09 10° NNE 04:38:06 48° E 04:43:00 10° S visible
31 Jan 3.8 06:12:33 10° N 06:16:56 30° WNW 06:21:19 10° WSW visible
31 Jan 6.1 17:35:30 10° WSW 17:37:48 13° W 17:40:06 10° WNW visible
